| time (UTC) | temp C | wind direction | speed KPH | gust KPH | rain 1hr cm | rain 24hr cm | rain mn cm | humidity % | barometer mb |
| 20260508125748 | 12 | 234 | 8.0 | 11.3 | 0.00 | 0.03 | 0.03 | 73 | 1015.5 |
| 20260508125244 | 12 | 129 | 6.4 | 9.7 | 0.00 | 0.03 | 0.03 | 73 | 1015.4 |
| 20260508124743 | 11 | 261 | 3.2 | 6.4 | 0.00 | 0.03 | 0.03 | 74 | 1015.4 |
| 20260508124239 | 11 | 263 | 3.2 | 4.8 | 0.00 | 0.03 | 0.03 | 75 | 1015.2 |
| 20260508123737 | 11 | 231 | 3.2 | 4.8 | 0.00 | 0.03 | 0.03 | 76 | 1015.2 |
| 20260508123235 | 11 | 206 | 1.6 | 1.6 | 0.00 | 0.03 | 0.03 | 78 | 1015.4 |
| 20260508122731 | 10 | 234 | 1.6 | 1.6 | 0.00 | 0.03 | 0.03 | 80 | 1015.3 |
| 20260508122228 | 10 | 225 | 4.8 | 4.8 | 0.00 | 0.03 | 0.03 | 79 | 1015.3 |
| 20260508121726 | 10 | 195 | 4.8 | 6.4 | 0.00 | 0.03 | 0.03 | 81 | 1015.3 |
| 20260508121224 | 9 | 214 | 3.2 | 3.2 | 0.00 | 0.03 | 0.03 | 83 | 1015.3 |
| 20260508120721 | 9 | 217 | 3.2 | 3.2 | 0.00 | 0.03 | 0.03 | 81 | 1015.3 |
| 20260508120219 | 8 | 193 | 3.2 | 4.8 | 0.00 | 0.03 | 0.03 | 89 | 1015.3 |
| 20260508115716 | 8 | 170 | 3.2 | 4.8 | 0.00 | 0.03 | 0.03 | 88 | 1015.3 |
| 20260508115213 | 8 | 187 | 6.4 | 6.4 | 0.00 | 0.03 | 0.03 | 89 | 1015.2 |
| 20260508114710 | 7 | 172 | 3.2 | 3.2 | 0.00 | 0.03 | 0.03 | 90 | 1015.2 |
| 20260508114207 | 7 | 199 | 3.2 | 3.2 | 0.00 | 0.03 | 0.03 | 90 | 1015.1 |
| 20260508113703 | 7 | 170 | 1.6 | 1.6 | 0.00 | 0.03 | 0.03 | 95 | 1015.1 |
| 20260508113202 | 7 | 170 | 3.2 | 3.2 | 0.00 | 0.03 | 0.03 | 95 | 1015.0 |
| 20260508112658 | 7 | 169 | 6.4 | 6.4 | 0.00 | 0.03 | 0.03 | 93 | 1015.0 |
| 20260508112155 | 6 | 240 | 1.6 | 1.6 | 0.00 | 0.03 | 0.03 | 99 | 1015.1 |
| 20260508111651 | 6 | 240 | 1.6 | 3.2 | 0.00 | 0.03 | 0.03 | 99 | 1015.1 |
| 20260508111149 | 6 | 240 | 1.6 | 1.6 | 0.00 | 0.03 | 0.03 | 99 | 1015.0 |
| 20260508110646 | 6 | 240 | 3.2 | 3.2 | 0.00 | 0.03 | 0.03 | 99 | 1015.1 |
| 20260508110143 | 6 | 240 | 0.0 | 0.0 | 0.00 | 0.03 | 0.03 | 99 | 1015.0 |
| 20260508105637 | 6 | 240 | 0.0 | 0.0 | 0.00 | 0.03 | 0.03 | 99 | 1015.0 |
| 20260508105135 | 6 | 75 | 0.0 | 0.0 | 0.00 | 0.03 | 0.03 | 99 | 1015.0 |
| 20260508104633 | 6 | 75 | 0.0 | 0.0 | 0.00 | 0.03 | 0.03 | 99 | 1014.9 |
| 20260508104129 | 6 | 75 | 0.0 | 0.0 | 0.00 | 0.03 | 0.03 | 99 | 1014.7 |
| 20260508103626 | 6 | 174 | 1.6 | 3.2 | 0.00 | 0.03 | 0.03 | 99 | 1015.0 |
| 20260508103123 | 6 | 126 | 1.6 | 1.6 | 0.00 | 0.03 | 0.03 | 99 | 1015.0 |
| 20260508102620 | 6 | 183 | 1.6 | 1.6 | 0.00 | 0.03 | 0.03 | 99 | 1014.8 |
| 20260508102118 | 6 | 183 | 1.6 | 1.6 | 0.00 | 0.03 | 0.03 | 99 | 1015.1 |
| 20260508101615 | 6 | 183 | 1.6 | 1.6 | 0.00 | 0.03 | 0.03 | 99 | 1014.7 |
| 20260508101113 | 6 | 183 | 0.0 | 1.6 | 0.00 | 0.03 | 0.03 | 98 | 1014.9 |
| 20260508100610 | 6 | 183 | 0.0 | 0.0 | 0.00 | 0.03 | 0.03 | 98 | 1014.7 |
| 20260508100108 | 6 | 183 | 0.0 | 0.0 | 0.00 | 0.03 | 0.03 | 98 | 1014.8 |
| 20260508095604 | 6 | 183 | 0.0 | 0.0 | 0.00 | 0.03 | 0.03 | 98 | 1014.9 |
| 20260508095101 | 6 | 184 | 0.0 | 0.0 | 0.00 | 0.03 | 0.03 | 98 | 1015.1 |
| 20260508094558 | 5 | 184 | 0.0 | 0.0 | 0.00 | 0.03 | 0.03 | 98 | 1014.8 |
| 20260508094055 | 5 | 184 | 0.0 | 0.0 | 0.00 | 0.03 | 0.03 | 97 | 1014.9 |
| 20260508093552 | 5 | 184 | 0.0 | 0.0 | 0.00 | 0.03 | 0.03 | 97 | 1014.7 |
| 20260508093050 | 5 | 184 | 0.0 | 0.0 | 0.00 | 0.03 | 0.03 | 96 | 1014.9 |
| 20260508092547 | 5 | 184 | 0.0 | 0.0 | 0.00 | 0.03 | 0.03 | 95 | 1014.7 |
| 20260508092046 | 6 | 184 | 0.0 | 0.0 | 0.00 | 0.03 | 0.03 | 94 | 1014.8 |
| 20260508091542 | 6 | 183 | 0.0 | 0.0 | 0.00 | 0.03 | 0.03 | 92 | 1014.6 |
| 20260508091039 | 6 | 184 | 0.0 | 0.0 | 0.00 | 0.03 | 0.03 | 91 | 1014.7 |
| 20260508090537 | 7 | 183 | 1.6 | 1.6 | 0.00 | 0.03 | 0.03 | 90 | 1014.9 |
| 20260508090034 | 7 | 183 | 0.0 | 0.0 | 0.00 | 0.03 | 0.03 | 89 | 1015.0 |
| 20260508085530 | 7 | 183 | 0.0 | 0.0 | 0.00 | 0.03 | 0.03 | 88 | 1015.0 |
| 20260508085027 | 8 | 183 | 0.0 | 0.0 | 0.00 | 0.03 | 0.03 | 85 | 1015.1 |
| 20260508084524 | 8 | 180 | 3.2 | 3.2 | 0.00 | 0.03 | 0.03 | 84 | 1015.0 |
| 20260508084022 | 7 | 278 | 1.6 | 3.2 | 0.00 | 0.03 | 0.03 | 85 | 1015.2 |
| 20260508083519 | 8 | 279 | 1.6 | 1.6 | 0.00 | 0.03 | 0.03 | 85 | 1015.1 |
| 20260508083015 | 8 | 279 | 1.6 | 1.6 | 0.00 | 0.03 | 0.03 | 83 | 1014.8 |
| 20260508082511 | 8 | 13 | 0.0 | 0.0 | 0.13 | 0.03 | 0.03 | 84 | 1014.9 |
| 20260508082009 | 8 | 252 | 4.8 | 4.8 | 0.13 | 0.03 | 0.03 | 84 | 1015.1 |
| 20260508081506 | 8 | 261 | 3.2 | 9.7 | 0.00 | 0.00 | 0.00 | 82 | 1015.6 |
| 20260508081001 | 8 | 226 | 3.2 | 3.2 | 0.00 | 0.00 | 0.00 | 84 | 1015.3 |
| 20260508080500 | 7 | 224 | 0.0 | 1.6 | 0.00 | 0.00 | 0.00 | 85 | 1015.4 |
| 20260508075957 | 7 | 202 | 0.0 | 0.0 | 0.00 | 0.00 | 0.00 | 85 | 1015.3 |
| 20260508075453 | 7 | 185 | 1.6 | 1.6 | 0.00 | 0.00 | 0.00 | 87 | 1015.1 |
| 20260508074951 | 7 | 185 | 1.6 | 3.2 | 0.00 | 0.00 | 0.00 | 85 | 1015.2 |
| 20260508074449 | 7 | 183 | 1.6 | 1.6 | 0.00 | 0.00 | 0.00 | 86 | 1015.0 |
| 20260508073945 | 7 | 224 | 3.2 | 3.2 | 0.00 | 0.00 | 0.00 | 85 | 1015.1 |
| 20260508073443 | 7 | 180 | 1.6 | 3.2 | 0.00 | 0.00 | 0.00 | 88 | 1015.1 |
| 20260508072940 | 6 | 181 | 1.6 | 1.6 | 0.00 | 0.00 | 0.00 | 88 | 1015.3 |
| 20260508072436 | 6 | 181 | 3.2 | 3.2 | 0.00 | 0.00 | 0.00 | 88 | 1015.1 |
| 20260508071933 | 6 | 183 | 1.6 | 3.2 | 0.00 | 0.00 | 0.00 | 88 | 1015.3 |
| 20260508071431 | 7 | 183 | 3.2 | 3.2 | 0.00 | 0.00 | 0.00 | 87 | 1015.2 |
| 20260508070929 | 7 | 172 | 4.8 | 6.4 | 0.00 | 0.00 | 0.00 | 87 | 1015.3 |
| 20260508070426 | 7 | 179 | 3.2 | 3.2 | 0.00 | 0.00 | 0.00 | 86 | 1015.5 |
| 20260508065924 | 7 | 178 | 3.2 | 3.2 | 0.00 | 0.00 | 0.00 | 85 | 1015.4 |
| 20260508065422 | 7 | 196 | 1.6 | 3.2 | 0.00 | 0.00 | 0.00 | 85 | 1015.5 |
| 20260508064920 | 7 | 196 | 4.8 | 4.8 | 0.00 | 0.00 | 0.00 | 85 | 1015.5 |
| 20260508064417 | 8 | 196 | 3.2 | 3.2 | 0.00 | 0.00 | 0.00 | 85 | 1015.4 |
| 20260508063914 | 8 | 197 | 3.2 | 4.8 | 0.00 | 0.00 | 0.00 | 85 | 1015.5 |
| 20260508063412 | 8 | 197 | 0.0 | 1.6 | 0.00 | 0.00 | 0.00 | 86 | 1015.7 |
| 20260508062909 | 8 | 197 | 3.2 | 3.2 | 0.00 | 0.00 | 0.00 | 84 | 1015.7 |
| 20260508062407 | 8 | 197 | 3.2 | 3.2 | 0.00 | 0.00 | 0.00 | 83 | 1015.7 |
| 20260508061903 | 8 | 209 | 8.0 | 11.3 | 0.00 | 0.00 | 0.00 | 82 | 1016.1 |
| 20260508061401 | 8 | 192 | 3.2 | 3.2 | 0.00 | 0.00 | 0.00 | 82 | 1015.9 |
| 20260508060857 | 8 | 193 | 1.6 | 1.6 | 0.00 | 0.00 | 0.00 | 81 | 1015.7 |
| 20260508060355 | 8 | 192 | 0.0 | 1.6 | 0.00 | 0.00 | 0.00 | 80 | 1015.7 |
| 20260508055850 | 8 | 189 | 1.6 | 3.2 | 0.00 | 0.00 | 0.00 | 78 | 1015.7 |
| 20260508055348 | 8 | 191 | 1.6 | 3.2 | 0.00 | 0.00 | 0.00 | 83 | 1015.8 |
| 20260508054844 | 8 | 247 | 1.6 | 1.6 | 0.00 | 0.00 | 0.00 | 86 | 1015.8 |
| 20260508054341 | 7 | 330 | 3.2 | 3.2 | 0.00 | 0.00 | 0.00 | 92 | 1015.8 |
| 20260508053838 | 7 | 341 | 1.6 | 1.6 | 0.00 | 0.00 | 0.00 | 93 | 1015.8 |
| 20260508053336 | 7 | 341 | 0.0 | 0.0 | 0.00 | 0.00 | 0.00 | 89 | 1015.7 |
| 20260508052832 | 7 | 341 | 0.0 | 0.0 | 0.00 | 0.00 | 0.00 | 89 | 1015.9 |
| 20260508052330 | 7 | 341 | 0.0 | 0.0 | 0.00 | 0.00 | 0.00 | 91 | 1015.8 |
| 20260508051826 | 7 | 341 | 0.0 | 0.0 | 0.00 | 0.00 | 0.00 | 89 | 1015.8 |
| 20260508051322 | 7 | 341 | 0.0 | 0.0 | 0.00 | 0.00 | 0.00 | 86 | 1015.8 |
| 20260508050818 | 7 | 341 | 0.0 | 0.0 | 0.00 | 0.00 | 0.00 | 88 | 1015.8 |
| 20260508050315 | 7 | 341 | 0.0 | 0.0 | 0.00 | 0.00 | 0.00 | 88 | 1015.8 |
| 20260508045811 | 7 | 341 | 0.0 | 0.0 | 0.00 | 0.00 | 0.00 | 88 | 1015.7 |
| 20260508045309 | 7 | 341 | 0.0 | 0.0 | 0.00 | 0.00 | 0.00 | 88 | 1015.7 |
| 20260508044807 | 7 | 341 | 0.0 | 0.0 | 0.00 | 0.00 | 0.00 | 87 | 1015.8 |
| 20260508044303 | 7 | 341 | 0.0 | 0.0 | 0.00 | 0.00 | 0.00 | 88 | 1015.9 |
| 20260508043759 | 7 | 341 | 1.6 | 1.6 | 0.00 | 0.00 | 0.00 | 89 | 1015.6 |
| 20260508043257 | 7 | 341 | 0.0 | 0.0 | 0.00 | 0.00 | 0.00 | 86 | 1015.7 |
| 20260508042753 | 7 | 341 | 0.0 | 0.0 | 0.00 | 0.00 | 0.00 | 82 | 1015.7 |
| 20260508042251 | 7 | 341 | 0.0 | 1.6 | 0.00 | 0.00 | 0.00 | 83 | 1015.8 |
| 20260508041747 | 7 | 341 | 1.6 | 3.2 | 0.00 | 0.00 | 0.00 | 86 | 1015.7 |
| 20260508041243 | 7 | 341 | 3.2 | 3.2 | 0.00 | 0.00 | 0.00 | 86 | 1015.5 |
| 20260508040740 | 8 | 341 | 0.0 | 0.0 | 0.00 | 0.00 | 0.00 | 82 | 1015.7 |
| 20260508040238 | 8 | 341 | 0.0 | 0.0 | 0.00 | 0.00 | 0.00 | 76 | 1015.9 |
| 20260508035735 | 8 | 341 | 0.0 | 0.0 | 0.00 | 0.00 | 0.00 | 77 | 1015.9 |
| 20260508035232 | 8 | 341 | 0.0 | 0.0 | 0.00 | 0.00 | 0.00 | 75 | 1016.0 |
| 20260508034728 | 8 | 341 | 0.0 | 0.0 | 0.00 | 0.00 | 0.00 | 74 | 1016.1 |
| 20260508034226 | 8 | 341 | 0.0 | 0.0 | 0.00 | 0.00 | 0.00 | 73 | 1016.0 |
| 20260508033723 | 8 | 341 | 0.0 | 0.0 | 0.00 | 0.00 | 0.00 | 71 | 1015.9 |
| 20260508033221 | 8 | 341 | 0.0 | 0.0 | 0.00 | 0.00 | 0.00 | 69 | 1016.1 |
| 20260508032719 | 8 | 341 | 0.0 | 0.0 | 0.00 | 0.00 | 0.00 | 69 | 1016.0 |
| 20260508032215 | 9 | 341 | 0.0 | 0.0 | 0.00 | 0.00 | 0.00 | 71 | 1016.1 |
| 20260508031712 | 9 | 341 | 0.0 | 0.0 | 0.00 | 0.00 | 0.00 | 69 | 1016.0 |
| 20260508031208 | 9 | 341 | 0.0 | 0.0 | 0.00 | 0.00 | 0.00 | 68 | 1016.1 |
| 20260508030705 | 10 | 341 | 0.0 | 0.0 | 0.00 | 0.00 | 0.00 | 66 | 1016.1 |
| 20260508030203 | 10 | 343 | 1.6 | 3.2 | 0.00 | 0.00 | 0.00 | 64 | 1016.1 |
| 20260508025659 | 10 | 333 | 1.6 | 1.6 | 0.00 | 0.00 | 0.00 | 64 | 1016.2 |
| 20260508025156 | 10 | 16 | 3.2 | 4.8 | 0.00 | 0.00 | 0.00 | 64 | 1016.1 |
| 20260508024651 | 10 | 315 | 3.2 | 4.8 | 0.00 | 0.00 | 0.00 | 64 | 1016.2 |
| 20260508024149 | 10 | 1 | 1.6 | 3.2 | 0.00 | 0.00 | 0.00 | 63 | 1016.3 |
| 20260508023645 | 10 | 307 | 3.2 | 4.8 | 0.00 | 0.00 | 0.00 | 63 | 1016.2 |
| 20260508023143 | 10 | 308 | 1.6 | 1.6 | 0.00 | 0.00 | 0.00 | 62 | 1016.2 |
| 20260508022638 | 10 | 291 | 6.4 | 6.4 | 0.00 | 0.00 | 0.00 | 61 | 1016.0 |
| 20260508022136 | 10 | 249 | 6.4 | 6.4 | 0.00 | 0.00 | 0.00 | 60 | 1016.1 |
| 20260508021632 | 10 | 320 | 0.0 | 0.0 | 0.00 | 0.00 | 0.00 | 61 | 1016.0 |
| 20260508021127 | 10 | 11 | 3.2 | 4.8 | 0.00 | 0.00 | 0.00 | 60 | 1015.8 |
| 20260508020625 | 10 | 354 | 1.6 | 1.6 | 0.00 | 0.00 | 0.00 | 57 | 1016.0 |
| 20260508020123 | 10 | 247 | 3.2 | 3.2 | 0.00 | 0.00 | 0.00 | 58 | 1015.9 |
| 20260508015620 | 10 | 256 | 0.0 | 0.0 | 0.00 | 0.00 | 0.00 | 57 | 1016.0 |
| 20260508015117 | 10 | 256 | 3.2 | 4.8 | 0.00 | 0.00 | 0.00 | 57 | 1015.9 |
| 20260508014613 | 10 | 251 | 3.2 | 3.2 | 0.00 | 0.00 | 0.00 | 56 | 1015.8 |
| 20260508014110 | 10 | 268 | 6.4 | 6.4 | 0.00 | 0.00 | 0.00 | 58 | 1015.5 |
| 20260508013606 | 7 | 233 | 8.0 | 11.3 | 0.00 | 0.00 | 0.00 | 76 | 1015.6 |
| 20260508013103 | 7 | 311 | 0.0 | 0.0 | 0.00 | 0.00 | 0.00 | 85 | 1015.5 |
| 20260508012600 | 6 | 311 | 0.0 | 0.0 | 0.00 | 0.00 | 0.00 | 83 | 1015.5 |
| 20260508012057 | 6 | 312 | 0.0 | 0.0 | 0.00 | 0.00 | 0.00 | 84 | 1015.4 |
| 20260508011556 | 6 | 312 | 0.0 | 0.0 | 0.00 | 0.00 | 0.00 | 85 | 1015.3 |
| 20260508011053 | 6 | 312 | 0.0 | 0.0 | 0.00 | 0.00 | 0.00 | 84 | 1015.4 |
| 20260508010549 | 6 | 312 | 0.0 | 0.0 | 0.00 | 0.00 | 0.00 | 82 | 1015.3 |
| 20260508010047 | 6 | 312 | 0.0 | 0.0 | 0.00 | 0.00 | 0.00 | 83 | 1015.2 |
| 20260508005543 | 6 | 312 | 0.0 | 0.0 | 0.00 | 0.00 | 0.00 | 80 | 1015.3 |
| 20260508005040 | 7 | 312 | 0.0 | 0.0 | 0.00 | 0.00 | 0.00 | 77 | 1015.2 |
| 20260508004536 | 7 | 312 | 0.0 | 0.0 | 0.00 | 0.00 | 0.00 | 75 | 1015.2 |
| 20260508004033 | 8 | 312 | 0.0 | 0.0 | 0.00 | 0.00 | 0.00 | 73 | 1015.1 |
| 20260508003529 | 8 | 312 | 0.0 | 0.0 | 0.00 | 0.00 | 0.00 | 70 | 1015.2 |
| 20260508003027 | 8 | 312 | 0.0 | 0.0 | 0.00 | 0.00 | 0.00 | 69 | 1015.2 |
| 20260508002523 | 9 | 311 | 0.0 | 0.0 | 0.00 | 0.00 | 0.00 | 67 | 1015.2 |
| 20260508002021 | 9 | 311 | 0.0 | 0.0 | 0.00 | 0.00 | 0.00 | 62 | 1015.0 |
| 20260508001516 | 10 | 311 | 0.0 | 0.0 | 0.00 | 0.00 | 0.00 | 63 | 1015.1 |
| 20260508001013 | 10 | 311 | 0.0 | 0.0 | 0.00 | 0.00 | 0.00 | 56 | 1014.9 |
| 20260508000509 | 10 | 311 | 0.0 | 0.0 | 0.00 | 0.00 | 0.00 | 56 | 1014.7 |
| 20260508000006 | 11 | 315 | 0.0 | 0.0 | 0.00 | 0.00 | 0.00 | 54 | 1014.8 |
| 20260507235502 | 11 | 315 | 0.0 | 0.0 | 0.00 | 0.00 | 0.00 | 52 | 1014.6 |
| 20260507235000 | 11 | 316 | 0.0 | 1.6 | 0.00 | 0.00 | 0.00 | 51 | 1014.7 |
| 20260507234456 | 11 | 261 | 1.6 | 3.2 | 0.00 | 0.00 | 0.00 | 50 | 1014.6 |
| 20260507233953 | 11 | 273 | 0.0 | 1.6 | 0.00 | 0.00 | 0.00 | 52 | 1014.8 |
| 20260507233450 | 11 | 255 | 1.6 | 3.2 | 0.00 | 0.00 | 0.00 | 49 | 1014.9 |
| 20260507232948 | 12 | 257 | 6.4 | 6.4 | 0.00 | 0.00 | 0.00 | 48 | 1014.7 |
| 20260507232444 | 12 | 259 | 0.0 | 1.6 | 0.00 | 0.00 | 0.00 | 48 | 1014.7 |
| 20260507231942 | 12 | 258 | 4.8 | 6.4 | 0.00 | 0.00 | 0.00 | 48 | 1014.8 |
| 20260507231438 | 12 | 52 | 1.6 | 1.6 | 0.00 | 0.00 | 0.00 | 48 | 1014.8 |
| 20260507230935 | 12 | 294 | 3.2 | 6.4 | 0.00 | 0.00 | 0.00 | 47 | 1014.7 |
| 20260507230432 | 12 | 256 | 4.8 | 6.4 | 0.00 | 0.00 | 0.00 | 46 | 1015.0 |
| 20260507225932 | 12 | 14 | 4.8 | 6.4 | 0.00 | 0.00 | 0.00 | 47 | 1014.8 |
| 20260507225429 | 12 | 264 | 3.2 | 4.8 | 0.00 | 0.00 | 0.00 | 46 | 1014.8 |
| 20260507224925 | 13 | 264 | 1.6 | 1.6 | 0.00 | 0.00 | 0.00 | 46 | 1014.8 |
| 20260507224421 | 13 | 354 | 1.6 | 1.6 | 0.00 | 0.00 | 0.00 | 48 | 1015.0 |
| 20260507223918 | 12 | 341 | 1.6 | 3.2 | 0.00 | 0.00 | 0.00 | 45 | 1014.8 |
| 20260507223414 | 12 | 342 | 3.2 | 4.8 | 0.00 | 0.00 | 0.00 | 46 | 1015.0 |
| 20260507222911 | 13 | 341 | 3.2 | 4.8 | 0.00 | 0.00 | 0.00 | 46 | 1015.0 |
| 20260507222408 | 13 | 229 | 8.0 | 12.9 | 0.00 | 0.00 | 0.00 | 44 | 1015.0 |
| 20260507221905 | 13 | 348 | 3.2 | 4.8 | 0.00 | 0.00 | 0.00 | 44 | 1014.7 |
| 20260507221401 | 13 | 354 | 6.4 | 6.4 | 0.00 | 0.00 | 0.00 | 44 | 1015.1 |
| 20260507220857 | 13 | 11 | 12.9 | 16.1 | 0.00 | 0.00 | 0.00 | 43 | 1014.9 |
| 20260507220355 | 12 | 338 | 4.8 | 4.8 | 0.00 | 0.00 | 0.00 | 47 | 1015.0 |
| 20260507215852 | 13 | 348 | 9.7 | 11.3 | 0.00 | 0.00 | 0.00 | 46 | 1014.9 |
| 20260507215348 | 13 | 344 | 9.7 | 12.9 | 0.00 | 0.00 | 0.00 | 43 | 1014.6 |
| 20260507214845 | 13 | 349 | 11.3 | 14.5 | 0.00 | 0.00 | 0.00 | 46 | 1014.5 |
| 20260507214343 | 13 | 285 | 3.2 | 4.8 | 0.00 | 0.00 | 0.00 | 45 | 1014.7 |
| 20260507213844 | 12 | 255 | 6.4 | 12.9 | 0.00 | 0.00 | 0.00 | 47 | 1014.7 |
| 20260507213341 | 12 | 273 | 4.8 | 9.7 | 0.00 | 0.00 | 0.00 | 46 | 1014.6 |
| 20260507212837 | 12 | 267 | 8.0 | 9.7 | 0.00 | 0.00 | 0.00 | 45 | 1014.9 |
| 20260507212333 | 13 | 17 | 8.0 | 9.7 | 0.00 | 0.00 | 0.00 | 46 | 1014.7 |
| 20260507211830 | 13 | 335 | 6.4 | 11.3 | 0.00 | 0.00 | 0.00 | 44 | 1014.8 |
| 20260507211327 | 13 | 245 | 3.2 | 6.4 | 0.00 | 0.00 | 0.00 | 47 | 1014.4 |
| 20260507210824 | 13 | 359 | 3.2 | 9.7 | 0.00 | 0.00 | 0.00 | 50 | 1014.6 |
| 20260507210321 | 12 | 246 | 4.8 | 9.7 | 0.00 | 0.00 | 0.00 | 48 | 1014.6 |
| 20260507205817 | 12 | 334 | 1.6 | 1.6 | 0.00 | 0.00 | 0.00 | 47 | 1014.4 |
| 20260507205315 | 13 | 244 | 8.0 | 11.3 | 0.00 | 0.00 | 0.00 | 45 | 1014.6 |
| 20260507204810 | 13 | 243 | 6.4 | 6.4 | 0.00 | 0.00 | 0.00 | 47 | 1014.4 |
| 20260507204308 | 13 | 251 | 8.0 | 11.3 | 0.00 | 0.00 | 0.00 | 48 | 1014.6 |
| 20260507203806 | 13 | 340 | 6.4 | 6.4 | 0.00 | 0.00 | 0.00 | 47 | 1014.6 |
| 20260507203303 | 13 | 245 | 4.8 | 4.8 | 0.00 | 0.00 | 0.00 | 49 | 1014.5 |
| 20260507202759 | 13 | 241 | 6.4 | 9.7 | 0.00 | 0.00 | 0.00 | 48 | 1014.7 |
| 20260507202255 | 12 | 293 | 3.2 | 4.8 | 0.00 | 0.00 | 0.00 | 51 | 1014.5 |
| 20260507201750 | 12 | 310 | 8.0 | 12.9 | 0.00 | 0.00 | 0.00 | 51 | 1014.5 |
| 20260507201247 | 12 | 252 | 3.2 | 4.8 | 0.00 | 0.00 | 0.00 | 53 | 1014.4 |
| 20260507200744 | 12 | 242 | 3.2 | 4.8 | 0.00 | 0.00 | 0.00 | 55 | 1014.7 |
| 20260507200239 | 12 | 231 | 6.4 | 6.4 | 0.00 | 0.00 | 0.00 | 54 | 1014.7 |
| 20260507195736 | 13 | 247 | 6.4 | 9.7 | 0.00 | 0.00 | 0.00 | 49 | 1014.7 |
| 20260507195233 | 13 | 298 | 1.6 | 3.2 | 0.00 | 0.00 | 0.00 | 58 | 1014.6 |
| 20260507194731 | 12 | 272 | 6.4 | 11.3 | 0.00 | 0.00 | 0.00 | 56 | 1014.7 |
| 20260507194226 | 12 | 13 | 6.4 | 9.7 | 0.00 | 0.00 | 0.00 | 54 | 1014.8 |
| 20260507193723 | 13 | 264 | 8.0 | 9.7 | 0.00 | 0.00 | 0.00 | 54 | 1014.6 |
| 20260507193220 | 13 | 252 | 3.2 | 4.8 | 0.00 | 0.00 | 0.00 | 54 | 1014.7 |
| 20260507192716 | 13 | 19 | 4.8 | 6.4 | 0.00 | 0.00 | 0.00 | 56 | 1014.6 |
| 20260507192213 | 12 | 239 | 4.8 | 4.8 | 0.00 | 0.00 | 0.00 | 54 | 1015.0 |
| 20260507191708 | 13 | 288 | 8.0 | 14.5 | 0.00 | 0.00 | 0.00 | 53 | 1014.9 |
| 20260507191206 | 13 | 342 | 4.8 | 6.4 | 0.00 | 0.00 | 0.00 | 55 | 1015.0 |
| 20260507190703 | 12 | 254 | 9.7 | 16.1 | 0.00 | 0.00 | 0.00 | 58 | 1015.0 |
| 20260507190202 | 12 | 328 | 3.2 | 3.2 | 0.00 | 0.00 | 0.00 | 57 | 1014.9 |
| 20260507185700 | 12 | 242 | 4.8 | 9.7 | 0.00 | 0.00 | 0.00 | 56 | 1015.0 |
| 20260507185157 | 13 | 263 | 6.4 | 9.7 | 0.00 | 0.00 | 0.00 | 53 | 1014.9 |
| 20260507184654 | 13 | 273 | 3.2 | 4.8 | 0.00 | 0.00 | 0.00 | 60 | 1014.9 |
| 20260507184152 | 12 | 234 | 1.6 | 3.2 | 0.00 | 0.00 | 0.00 | 54 | 1015.0 |
| 20260507183648 | 13 | 196 | 6.4 | 9.7 | 0.00 | 0.00 | 0.00 | 55 | 1014.9 |
| 20260507183145 | 13 | 240 | 8.0 | 11.3 | 0.00 | 0.00 | 0.00 | 49 | 1015.0 |
| 20260507182642 | 13 | 216 | 9.7 | 12.9 | 0.00 | 0.00 | 0.00 | 54 | 1014.8 |
| 20260507182137 | 13 | 204 | 6.4 | 6.4 | 0.00 | 0.00 | 0.00 | 52 | 1014.7 |
| 20260507181634 | 13 | 226 | 4.8 | 9.7 | 0.00 | 0.00 | 0.00 | 56 | 1015.0 |
| 20260507181130 | 13 | 235 | 4.8 | 4.8 | 0.00 | 0.00 | 0.00 | 52 | 1015.0 |
| 20260507180627 | 12 | 236 | 8.0 | 11.3 | 0.00 | 0.00 | 0.00 | 52 | 1015.0 |
| 20260507180124 | 13 | 215 | 8.0 | 9.7 | 0.00 | 0.00 | 0.00 | 59 | 1015.1 |
| 20260507175620 | 12 | 223 | 4.8 | 6.4 | 0.00 | 0.00 | 0.00 | 56 | 1015.2 |
| 20260507175117 | 13 | 258 | 11.3 | 14.5 | 0.00 | 0.00 | 0.00 | 53 | 1015.3 |
| 20260507174614 | 13 | 220 | 6.4 | 9.7 | 0.00 | 0.00 | 0.00 | 53 | 1015.3 |
| 20260507174112 | 12 | 249 | 9.7 | 12.9 | 0.00 | 0.00 | 0.00 | 55 | 1015.2 |
| 20260507173609 | 13 | 224 | 8.0 | 14.5 | 0.00 | 0.00 | 0.00 | 58 | 1015.3 |
| 20260507173106 | 13 | 242 | 3.2 | 4.8 | 0.00 | 0.00 | 0.00 | 53 | 1015.3 |
| 20260507172602 | 13 | 248 | 9.7 | 9.7 | 0.00 | 0.00 | 0.00 | 51 | 1015.3 |
| 20260507172059 | 12 | 240 | 6.4 | 9.7 | 0.00 | 0.00 | 0.00 | 54 | 1015.3 |
| 20260507171554 | 13 | 248 | 6.4 | 9.7 | 0.00 | 0.00 | 0.00 | 57 | 1015.0 |
| 20260507171052 | 13 | 269 | 4.8 | 6.4 | 0.00 | 0.00 | 0.00 | 59 | 1015.4 |
| 20260507170549 | 12 | 297 | 3.2 | 4.8 | 0.00 | 0.00 | 0.00 | 56 | 1015.4 |
| 20260507170046 | 13 | 323 | 9.7 | 14.5 | 0.00 | 0.00 | 0.00 | 57 | 1015.2 |
| 20260507165541 | 13 | 249 | 6.4 | 6.4 | 0.00 | 0.00 | 0.00 | 55 | 1015.3 |
| 20260507165038 | 12 | 229 | 8.0 | 9.7 | 0.00 | 0.00 | 0.00 | 53 | 1015.3 |
| 20260507164534 | 13 | 234 | 8.0 | 11.3 | 0.00 | 0.00 | 0.00 | 57 | 1015.3 |
| 20260507164031 | 12 | 213 | 1.6 | 3.2 | 0.00 | 0.00 | 0.00 | 57 | 1015.4 |
| 20260507163528 | 13 | 249 | 6.4 | 6.4 | 0.00 | 0.00 | 0.00 | 54 | 1015.4 |
| 20260507163027 | 12 | 197 | 9.7 | 12.9 | 0.00 | 0.00 | 0.00 | 59 | 1015.3 |
| 20260507162526 | 12 | 259 | 4.8 | 4.8 | 0.00 | 0.00 | 0.00 | 53 | 1015.4 |
| 20260507162024 | 11 | 356 | 4.8 | 9.7 | 0.00 | 0.00 | 0.00 | 59 | 1015.4 |
| 20260507161520 | 11 | 247 | 6.4 | 9.7 | 0.00 | 0.00 | 0.00 | 58 | 1015.5 |
| 20260507161017 | 11 | 326 | 3.2 | 4.8 | 0.00 | 0.00 | 0.00 | 55 | 1015.3 |
| 20260507160513 | 12 | 13 | 9.7 | 12.9 | 0.00 | 0.00 | 0.00 | 53 | 1015.3 |
| 20260507160010 | 12 | 229 | 8.0 | 11.3 | 0.00 | 0.00 | 0.00 | 60 | 1015.6 |
| 20260507155505 | 12 | 25 | 11.3 | 12.9 | 0.00 | 0.00 | 0.00 | 55 | 1015.5 |
| 20260507155003 | 12 | 6 | 1.6 | 3.2 | 0.00 | 0.00 | 0.00 | 54 | 1015.4 |
| 20260507154459 | 11 | 343 | 6.4 | 6.4 | 0.00 | 0.00 | 0.00 | 56 | 1015.4 |
| 20260507153956 | 12 | 253 | 4.8 | 6.4 | 0.00 | 0.00 | 0.00 | 56 | 1015.4 |
| 20260507153453 | 11 | 246 | 8.0 | 17.7 | 0.00 | 0.00 | 0.00 | 57 | 1015.4 |
| 20260507152949 | 11 | 6 | 3.2 | 4.8 | 0.00 | 0.00 | 0.00 | 59 | 1015.3 |
| 20260507152445 | 12 | 246 | 6.4 | 6.4 | 0.00 | 0.00 | 0.00 | 56 | 1015.3 |
| 20260507151941 | 11 | 213 | 4.8 | 4.8 | 0.00 | 0.00 | 0.00 | 64 | 1015.4 |
| 20260507151438 | 12 | 264 | 4.8 | 6.4 | 0.00 | 0.00 | 0.00 | 61 | 1015.4 |
| 20260507150934 | 11 | 268 | 3.2 | 6.4 | 0.00 | 0.00 | 0.00 | 63 | 1015.3 |
| 20260507150432 | 12 | 243 | 4.8 | 6.4 | 0.00 | 0.00 | 0.00 | 59 | 1015.3 |
| 20260507145928 | 12 | 233 | 3.2 | 3.2 | 0.00 | 0.00 | 0.00 | 66 | 1015.4 |
| 20260507145424 | 11 | 243 | 4.8 | 4.8 | 0.00 | 0.00 | 0.00 | 63 | 1015.5 |
| 20260507144921 | 11 | 353 | 3.2 | 4.8 | 0.00 | 0.00 | 0.00 | 67 | 1015.6 |
| 20260507144418 | 11 | 327 | 3.2 | 3.2 | 0.00 | 0.00 | 0.00 | 64 | 1015.5 |
| 20260507143915 | 11 | 231 | 1.6 | 1.6 | 0.00 | 0.00 | 0.00 | 74 | 1015.3 |
| 20260507143412 | 11 | 244 | 4.8 | 6.4 | 0.00 | 0.00 | 0.00 | 70 | 1015.4 |
| 20260507142908 | 10 | 330 | 3.2 | 3.2 | 0.00 | 0.00 | 0.00 | 69 | 1015.3 |
| 20260507142404 | 11 | 170 | 4.8 | 6.4 | 0.00 | 0.00 | 0.00 | 77 | 1015.3 |
| 20260507141902 | 10 | 112 | 3.2 | 4.8 | 0.00 | 0.00 | 0.00 | 73 | 1015.5 |
| 20260507141358 | 10 | 224 | 4.8 | 4.8 | 0.00 | 0.00 | 0.00 | 78 | 1015.4 |
| 20260507140854 | 10 | 235 | 8.0 | 9.7 | 0.00 | 0.00 | 0.00 | 72 | 1015.6 |
| 20260507140351 | 10 | 269 | 4.8 | 6.4 | 0.00 | 0.00 | 0.00 | 74 | 1015.7 |
| 20260507135849 | 10 | 242 | 6.4 | 6.4 | 0.00 | 0.00 | 0.00 | 73 | 1015.5 |
| 20260507135346 | 10 | 239 | 4.8 | 4.8 | 0.00 | 0.00 | 0.00 | 78 | 1015.6 |
| 20260507134843 | 9 | 245 | 3.2 | 4.8 | 0.00 | 0.00 | 0.00 | 76 | 1015.6 |
| 20260507134339 | 9 | 324 | 3.2 | 3.2 | 0.00 | 0.00 | 0.00 | 77 | 1015.8 |
| 20260507133835 | 9 | 245 | 3.2 | 3.2 | 0.00 | 0.00 | 0.00 | 77 | 1015.6 |
| 20260507133331 | 8 | 246 | 1.6 | 3.2 | 0.00 | 0.00 | 0.00 | 82 | 1015.8 |
| 20260507132830 | 8 | 245 | 3.2 | 4.8 | 0.00 | 0.00 | 0.00 | 80 | 1015.7 |
| 20260507132325 | 8 | 239 | 1.6 | 1.6 | 0.00 | 0.00 | 0.00 | 81 | 1015.9 |
| 20260507131823 | 8 | 239 | 0.0 | 1.6 | 0.00 | 0.00 | 0.00 | 82 | 1015.8 |
| 20260507131319 | 8 | 246 | 1.6 | 3.2 | 0.00 | 0.00 | 0.00 | 81 | 1015.8 |
| 20260507130816 | 7 | 245 | 0.0 | 0.0 | 0.00 | 0.00 | 0.00 | 81 | 1015.8 |
| 20260507130314 | 7 | 243 | 6.4 | 11.3 | 0.00 | 0.00 | 0.00 | 82 | 1015.7 |